Time,TemperatureF,DewpointF,PressureIn,WindDirection,WindDirectionDegrees,WindSpeedMPH,WindSpeedGustMPH,Humidity,HourlyPrecipIn,Conditions,Clouds,dailyrainin,SoftwareType,DateUTC
2013-08-08 00:02:00,75.7,69.0,30.07,South,180,0.0,0.0,80,0.00,,,0.00,weatherlink.com 1.10,2013-08-08 04:02:00,
2013-08-08 00:17:00,75.6,69.0,30.07,South,180,0.0,0.0,79,0.00,,,0.00,weatherlink.com 1.10,2013-08-08 04:17:00,
2013-08-08 00:32:00,75.6,69.0,30.06,South,180,0.0,0.0,80,0.00,,,0.00,weatherlink.com 1.10,2013-08-08 04:32:00,
2013-08-08 00:47:00,75.5,69.0,30.06,South,180,0.0,0.0,80,0.00,,,0.00,weatherlink.com 1.10,2013-08-08 04:47:00,
2013-08-08 01:02:00,75.4,69.0,30.06,South,180,0.0,0.0,79,0.00,,,0.00,weatherlink.com 1.10,2013-08-08 05:02:00,
2013-08-08 01:17:00,75.2,69.0,30.07,South,180,0.0,0.0,80,0.00,,,0.00,weatherlink.com 1.10,2013-08-08 05:17:00,
2013-08-08 01:32:00,75.0,68.0,30.07,South,180,0.0,0.0,80,0.00,,,0.00,weatherlink.com 1.10,2013-08-08 05:32:00,
2013-08-08 01:47:00,74.8,69.0,30.06,South,180,0.0,0.0,81,0.00,,,0.00,weatherlink.com 1.10,2013-08-08 05:47:00,
2013-08-08 02:02:00,74.7,69.0,30.06,South,180,0.0,0.0,81,0.00,,,0.00,weatherlink.com 1.10,2013-08-08 06:02:00,
2013-08-08 02:17:00,74.5,68.0,30.06,South,180,0.0,0.0,81,0.00,,,0.00,weatherlink.com 1.10,2013-08-08 06:17:00,
2013-08-08 02:32:00,74.3,69.0,30.06,South,180,0.0,0.0,82,0.00,,,0.00,weatherlink.com 1.10,2013-08-08 06:32:00,
2013-08-08 02:47:00,74.0,68.0,30.06,South,180,0.0,0.0,82,0.00,,,0.00,weatherlink.com 1.10,2013-08-08 06:47:00,
2013-08-08 03:02:00,73.8,68.0,30.06,South,180,0.0,0.0,83,0.00,,,0.00,weatherlink.com 1.10,2013-08-08 07:02:00,
2013-08-08 03:17:00,73.6,68.0,30.06,South,180,0.0,0.0,83,0.00,,,0.00,weatherlink.com 1.10,2013-08-08 07:17:00,
2013-08-08 03:32:00,73.5,68.0,30.06,South,180,0.0,0.0,84,0.00,,,0.00,weatherlink.com 1.10,2013-08-08 07:32:00,
2013-08-08 03:47:00,73.5,68.0,30.06,South,180,0.0,0.0,84,0.00,,,0.00,weatherlink.com 1.10,2013-08-08 07:47:00,
2013-08-08 04:02:00,73.4,68.0,30.06,South,180,0.0,0.0,84,0.00,,,0.00,weatherlink.com 1.10,2013-08-08 08:02:00,
2013-08-08 04:17:00,73.3,69.0,30.05,South,180,0.0,0.0,85,0.00,,,0.00,weatherlink.com 1.10,2013-08-08 08:17:00,
2013-08-08 04:33:00,73.0,68.0,30.05,South,180,0.0,0.0,84,0.00,,,0.00,weatherlink.com 1.10,2013-08-08 08:33:00,
2013-08-08 04:48:00,72.8,68.0,30.06,South,180,0.0,0.0,85,0.00,,,0.00,weatherlink.com 1.10,2013-08-08 08:48:00,
2013-08-08 05:03:00,72.6,68.0,30.05,South,180,0.0,0.0,85,0.00,,,0.00,weatherlink.com 1.10,2013-08-08 09:03:00,
2013-08-08 05:18:00,72.4,68.0,30.06,South,180,0.0,0.0,85,0.00,,,0.00,weatherlink.com 1.10,2013-08-08 09:18:00,
2013-08-08 05:33:00,72.3,68.0,30.06,South,180,0.0,0.0,85,0.00,,,0.00,weatherlink.com 1.10,2013-08-08 09:33:00,
2013-08-08 05:48:00,72.2,68.0,30.06,South,179,0.0,0.0,86,0.00,,,0.00,weatherlink.com 1.10,2013-08-08 09:48:00,
2013-08-08 06:03:00,72.0,68.0,30.06,South,180,0.0,0.0,86,0.00,,,0.00,weatherlink.com 1.10,2013-08-08 10:03:00,
2013-08-08 06:18:00,71.9,68.0,30.06,South,180,0.0,0.0,86,0.00,,,0.00,weatherlink.com 1.10,2013-08-08 10:18:00,
2013-08-08 06:33:00,71.9,68.0,30.07,South,179,0.0,0.0,86,0.00,,,0.00,weatherlink.com 1.10,2013-08-08 10:33:00,
2013-08-08 06:48:00,71.8,68.0,30.07,South,180,0.0,0.0,86,0.00,,,0.00,weatherlink.com 1.10,2013-08-08 10:48:00,
2013-08-08 07:03:00,71.7,67.0,30.07,South,180,0.0,0.0,86,0.00,,,0.00,weatherlink.com 1.10,2013-08-08 11:03:00,
2013-08-08 07:18:00,71.7,68.0,30.07,South,180,0.0,0.0,87,0.00,,,0.00,weatherlink.com 1.10,2013-08-08 11:18:00,
2013-08-08 07:33:00,71.8,68.0,30.07,South,180,0.0,0.0,87,0.00,,,0.00,weatherlink.com 1.10,2013-08-08 11:33:00,
2013-08-08 07:48:00,72.0,68.0,30.07,South,180,0.0,0.0,87,0.00,,,0.00,weatherlink.com 1.10,2013-08-08 11:48:00,
2013-08-08 08:03:00,72.4,68.0,30.07,West,262,0.0,0.0,87,0.00,,,0.00,weatherlink.com 1.10,2013-08-08 12:03:00,
2013-08-08 08:18:00,72.8,69.0,30.07,West,263,0.0,0.0,88,0.00,,,0.00,weatherlink.com 1.10,2013-08-08 12:18:00,
2013-08-08 08:33:00,73.3,69.0,30.07,West,262,0.0,0.0,87,0.00,,,0.00,weatherlink.com 1.10,2013-08-08 12:33:00,
2013-08-08 08:48:00,73.8,70.0,30.07,West,265,0.0,0.0,87,0.00,,,0.00,weatherlink.com 1.10,2013-08-08 12:48:00,
2013-08-08 09:03:00,74.4,70.0,30.07,West,265,0.0,0.0,87,0.00,,,0.00,weatherlink.com 1.10,2013-08-08 13:03:00,
2013-08-08 09:18:00,75.0,71.0,30.07,West,265,0.0,0.0,86,0.00,,,0.00,weatherlink.com 1.10,2013-08-08 13:18:00,
2013-08-08 09:33:00,75.6,71.0,30.07,West,266,0.0,0.0,85,0.00,,,0.00,weatherlink.com 1.10,2013-08-08 13:33:00,
2013-08-08 09:48:00,76.7,71.0,30.08,SSW,200,0.0,0.0,83,0.00,,,0.00,weatherlink.com 1.10,2013-08-08 13:48:00,
2013-08-08 10:03:00,77.5,71.0,30.08,SSW,200,0.0,0.0,80,0.00,,,0.00,weatherlink.com 1.10,2013-08-08 14:03:00,
2013-08-08 10:18:00,78.0,71.0,30.08,SSW,200,0.0,0.0,79,0.00,,,0.00,weatherlink.com 1.10,2013-08-08 14:18:00,
2013-08-08 10:33:00,78.9,71.0,30.08,North,355,0.0,2.0,77,0.00,,,0.00,weatherlink.com 1.10,2013-08-08 14:33:00,
2013-08-08 10:48:00,80.5,72.0,30.08,North,350,0.0,1.0,75,0.00,,,0.00,weatherlink.com 1.10,2013-08-08 14:48:00,
2013-08-08 11:03:00,80.7,72.0,30.08,North,350,0.0,1.0,75,0.00,,,0.00,weatherlink.com 1.10,2013-08-08 15:03:00,
2013-08-08 11:18:00,81.6,72.0,30.08,North,5,0.0,2.0,72,0.00,,,0.00,weatherlink.com 1.10,2013-08-08 15:18:00,
2013-08-08 11:33:00,83.0,73.0,30.07,North,5,0.0,1.0,72,0.00,,,0.00,weatherlink.com 1.10,2013-08-08 15:33:00,
2013-08-08 11:48:00,82.8,73.0,30.07,North,5,0.0,1.0,73,0.00,,,0.00,weatherlink.com 1.10,2013-08-08 15:48:00,
2013-08-08 12:03:00,82.7,72.0,30.07,North,5,0.0,1.0,70,0.00,,,0.00,weatherlink.com 1.10,2013-08-08 16:03:00,
2013-08-08 12:18:00,83.3,72.0,30.07,North,5,0.0,2.0,69,0.00,,,0.00,weatherlink.com 1.10,2013-08-08 16:18:00,
2013-08-08 12:33:00,82.8,73.0,30.07,North,5,0.0,0.0,72,0.00,,,0.00,weatherlink.com 1.10,2013-08-08 16:33:00,
2013-08-08 12:48:00,83.4,74.0,30.07,North,360,0.0,1.0,73,0.00,,,0.00,weatherlink.com 1.10,2013-08-08 16:48:00,
2013-08-08 13:03:00,83.9,73.0,30.07,ENE,75,0.0,1.0,70,0.00,,,0.00,weatherlink.com 1.10,2013-08-08 17:03:00,
2013-08-08 13:18:00,84.2,74.0,30.07,ENE,73,0.0,2.0,71,0.00,,,0.00,weatherlink.com 1.10,2013-08-08 17:18:00,
2013-08-08 13:33:00,84.4,72.0,30.06,SSE,156,0.0,2.0,67,0.00,,,0.00,weatherlink.com 1.10,2013-08-08 17:33:00,
2013-08-08 13:48:00,85.1,73.0,30.06,SSE,156,0.0,1.0,67,0.00,,,0.00,weatherlink.com 1.10,2013-08-08 17:48:00,
2013-08-08 14:03:00,85.8,73.0,30.06,West,259,0.0,2.0,66,0.00,,,0.00,weatherlink.com 1.10,2013-08-08 18:03:00,
2013-08-08 14:18:00,86.1,72.0,30.05,SSE,168,0.0,2.0,63,0.00,,,0.00,weatherlink.com 1.10,2013-08-08 18:18:00,
2013-08-08 14:33:00,85.8,74.0,30.05,SSE,168,0.0,1.0,67,0.00,,,0.00,weatherlink.com 1.10,2013-08-08 18:33:00,
2013-08-08 14:48:00,85.7,73.0,30.04,SSE,168,0.0,2.0,65,0.00,,,0.00,weatherlink.com 1.10,2013-08-08 18:48:00,
2013-08-08 15:04:00,85.9,73.0,30.04,North,360,0.0,2.0,66,0.00,,,0.00,weatherlink.com 1.10,2013-08-08 19:04:00,
2013-08-08 15:19:00,85.6,73.0,30.03,NW,319,0.0,1.0,66,0.00,,,0.00,weatherlink.com 1.10,2013-08-08 19:19:00,
2013-08-08 15:34:00,84.9,73.0,30.03,NW,319,0.0,0.0,68,0.00,,,0.00,weatherlink.com 1.10,2013-08-08 19:34:00,
2013-08-08 15:49:00,84.6,75.0,30.03,NW,319,0.0,1.0,72,0.00,,,0.00,weatherlink.com 1.10,2013-08-08 19:49:00,
2013-08-08 16:04:00,84.4,74.0,30.03,NW,319,0.0,2.0,70,0.00,,,0.00,weatherlink.com 1.10,2013-08-08 20:04:00,
2013-08-08 16:19:00,84.1,74.0,30.02,NW,320,0.0,0.0,71,0.00,,,0.00,weatherlink.com 1.10,2013-08-08 20:19:00,
2013-08-08 16:34:00,83.9,74.0,30.02,NW,319,0.0,0.0,71,0.00,,,0.00,weatherlink.com 1.10,2013-08-08 20:34:00,
2013-08-08 16:49:00,83.9,75.0,30.01,North,360,0.0,0.0,74,0.00,,,0.00,weatherlink.com 1.10,2013-08-08 20:49:00,
2013-08-08 17:04:00,83.7,74.0,30.01,North,360,0.0,0.0,73,0.00,,,0.00,weatherlink.com 1.10,2013-08-08 21:04:00,
2013-08-08 17:19:00,83.5,74.0,30.01,NW,320,0.0,0.0,73,0.00,,,0.00,weatherlink.com 1.10,2013-08-08 21:19:00,
2013-08-08 17:34:00,83.5,74.0,30.01,NW,319,0.0,0.0,74,0.00,,,0.00,weatherlink.com 1.10,2013-08-08 21:34:00,
2013-08-08 17:49:00,83.2,74.0,30.01,NW,319,0.0,0.0,74,0.00,,,0.00,weatherlink.com 1.10,2013-08-08 21:49:00,
2013-08-08 18:04:00,82.8,74.0,30.02,NW,319,0.0,0.0,74,0.00,,,0.00,weatherlink.com 1.10,2013-08-08 22:04:00,
2013-08-08 18:19:00,82.3,74.0,30.02,NW,319,0.0,0.0,76,0.00,,,0.00,weatherlink.com 1.10,2013-08-08 22:19:00,
2013-08-08 18:34:00,82.0,74.0,30.02,NW,319,0.0,0.0,77,0.00,,,0.00,weatherlink.com 1.10,2013-08-08 22:34:00,
2013-08-08 19:04:00,81.4,74.0,30.02,NW,319,0.0,0.0,77,0.00,,,0.00,weatherlink.com 1.10,2013-08-08 23:04:00,
2013-08-08 19:19:00,81.1,74.0,30.02,NW,319,0.0,0.0,78,0.00,,,0.00,weatherlink.com 1.10,2013-08-08 23:19:00,
2013-08-08 19:34:00,81.0,74.0,30.02,NW,319,0.0,0.0,79,0.00,,,0.00,weatherlink.com 1.10,2013-08-08 23:34:00,
2013-08-08 20:04:00,80.3,74.0,30.03,NW,319,0.0,0.0,80,0.00,,,0.00,weatherlink.com 1.10,2013-08-09 00:04:00,
2013-08-08 20:34:00,79.6,73.0,30.03,NW,320,0.0,0.0,81,0.00,,,0.00,weatherlink.com 1.10,2013-08-09 00:34:00,
2013-08-08 20:49:00,79.3,73.0,30.03,North,360,0.0,0.0,81,0.00,,,0.00,weatherlink.com 1.10,2013-08-09 00:49:00,
2013-08-08 21:04:00,79.0,73.0,30.04,NW,319,0.0,0.0,82,0.00,,,0.00,weatherlink.com 1.10,2013-08-09 01:04:00,
2013-08-08 21:19:00,78.7,73.0,30.04,NW,319,0.0,0.0,82,0.00,,,0.00,weatherlink.com 1.10,2013-08-09 01:19:00,
2013-08-08 21:34:00,78.3,73.0,30.04,NW,320,0.0,0.0,83,0.00,,,0.00,weatherlink.com 1.10,2013-08-09 01:34:00,
2013-08-08 22:04:00,77.8,73.0,30.04,North,360,0.0,0.0,84,0.00,,,0.00,weatherlink.com 1.10,2013-08-09 02:04:00,
2013-08-08 22:19:00,77.6,73.0,30.04,NW,319,0.0,0.0,84,0.00,,,0.00,weatherlink.com 1.10,2013-08-09 02:19:00,
2013-08-08 22:34:00,77.5,73.0,30.03,North,360,0.0,0.0,85,0.00,,,0.00,weatherlink.com 1.10,2013-08-09 02:34:00,
2013-08-08 22:49:00,77.4,73.0,30.03,North,360,0.0,0.0,85,0.00,,,0.00,weatherlink.com 1.10,2013-08-09 02:49:00,
2013-08-08 23:04:00,77.1,72.0,30.04,NW,319,0.0,0.0,85,0.00,,,0.00,weatherlink.com 1.10,2013-08-09 03:04:00,
2013-08-08 23:19:00,77.0,73.0,30.04,NW,319,0.0,0.0,86,0.00,,,0.00,weatherlink.com 1.10,2013-08-09 03:19:00,
2013-08-08 23:34:00,76.9,73.0,30.04,North,360,0.0,0.0,86,0.00,,,0.00,weatherlink.com 1.10,2013-08-09 03:34:00,
2013-08-08 23:49:00,76.6,72.0,30.03,NW,319,0.0,0.0,86,0.00,,,0.00,weatherlink.com 1.10,2013-08-09 03:49:00,